DELTA 1 DEB, 3126

Orbit data source: Space-Track

DELTA 1 DEB, 3126 is space debris in LEO originally from a launch on Thu, 11 Jan 1968 UTC launched from the Air Force Western Test Range (AFWTR). Debris objects in space refer to the collection of defunct objects orbiting the Earth. Examples of debris include non-operational satellites, rocket bodies, and fragments generated from explosions, collisions, or faulty payload assembly.

Loading next visibility...
Identifier
3126, 1968-002C
Orbit
LEO
Country
Flag of USUS
Related business
Manufacturer
Unknown
Mission
Spacecraft
Bus & Motor
Unknown
Mass
Unknown
Launch date (UTC)
1968-01-11 (58 years ago)
Launch vehicle
Unknown
Launch site
Air Force Western Test Range (AFWTR)
Object type
Payload
Rocket body
Debris
Shape & HBR
Unknown shape, 0.1 m
Radar Cross Section
Small (<0.1 m²)

Expand to show TLE details & history
Last TLE update: 22 hours ago

TLE from 22 hours ago
0 DELTA 1 DEB
1 03126U 68002C   26130.71979826 -.00000049  00000-0  97176-4 0  9997
2 03126 106.0584  64.6141 0322028 220.3062 214.0824 12.82465547729487
Epoch: 2026-05-10T17:16Z
TLE epoch observation values (Epoch: 2026-05-10T17:16:30.569Z)
Latitude
66.42635°
Longitude
-104.06542°
Altitude
1,550.759 km
Speed
7.001 km/s
True Right ascension
01h 34m 19s
True Declination
66° 18' 46"
Sunlit
Object was in daylight at epoch
Visualization orbit readout
Latitude
Unknown
Longitude
Unknown
Altitude
Unknown
Speed
Unknown
Apparent Right ascension
Unknown
Apparent Declination
Unknown
Sunlit
N/A
Visualization observer readout
Local Sidereal Time
23:51:44
Azimuth
Unknown
Elevation
Unknown
Doppler factor
Unknown
Orbital elements
Apogee altitude
1,577.578 km
Perigee altitude
1,081.171 km
Semi-major axis
7,707.511 km
Eccentricity
0.0322
Inclination
106.0584°
RAAN
64.6141°
Arg. of periapsis
220.3062°
True anomaly
212.08169°
Mean anomaly
214.0824°
Eccentric anomaly
213.07546°
Mean motion
3.20754 °/min
Orbital period
112.24 mins
BSTAR
0.000097176
Loading maneuver chart data...
Computing Atmospheric mass density...
Loading historical data...
Loading historical data...
Loading historical data...
Loading historical data...
Loading historical data...
Loading historical data...
Loading historical data...

Documentation

Showing up to 5 results
|